[keps] orb12348.2l.amsat
Ray Hoad
ray.hoad at mypbmail.com
Thu Dec 13 18:16:37 PST 2012
SB KEPS @ AMSAT $ORB12348.N
2Line Orbital Elements 12348.AMSAT
HR AMSAT ORBITAL ELEMENTS FOR AMATEUR SATELLITES IN NASA FORMAT
FROM WA5QGD FORT WORTH,TX December 13, 2012
BID: ORB12348.N
DECODE 2-LINE ELSETS WITH THE FOLLOWING KEY:
1 AAAAAU 00 0 0 BBBBB.BBBBBBBB .CCCCCCCC 00000-0 00000-0 0 DDDZ
2 AAAAA EEE.EEEE FFF.FFFF GGGGGGG HHH.HHHH III.IIII JJ.JJJJJJJJKKKKKZ
KEY: A-CATALOGNUM B-EPOCHTIME C-DECAY D-ELSETNUM E-INCLINATION F-RAAN
G-ECCENTRICITY H-ARGPERIGEE I-MNANOM J-MNMOTION K-ORBITNUM Z-CHECKSUM
TO ALL RADIO AMATEURS BT
AO-07
1 07530U 74089B 12347.59022797 -.00000027 00000-0 10000-3 0 5553
2 07530 101.4146 337.9916 0011871 294.4164 065.5671 12.53593363742407
FO-29
1 24278U 96046B 12348.21684859 -.00000052 00000-0 -13436-4 0 02
2 24278 098.5839 065.4428 0349731 285.9635 070.3241 13.52992679806162
SO-33
1 25509U 98061B 12347.57285040 .00000452 00000-0 77270-4 0 3883
2 25509 031.4359 044.0717 0351828 324.3629 033.3969 14.28933793738186
RS-22
1 27939U 03042A 12348.52838038 .00000407 00000-0 85579-4 0 9915
2 27939 097.7985 180.0630 0014397 058.0842 302.1779 14.64254724492122
VO-52
1 28650U 05017B 12348.64336073 .00001371 00000-0 17212-3 0 2894
2 28650 097.5819 010.7042 0026393 168.6387 191.5450 14.83439058411576
HO-68
1 36122U 09072B 12348.74468715 -.00000044 00000-0 00000 0 0 979
2 36122 100.3378 044.2716 0007787 061.0779 299.1110 13.16300557144015
UO-11
1 14781U 84021B 12347.87753899 .00000518 00000-0 74211-4 0 498
2 14781 097.9303 045.6215 0009627 166.3147 193.8328 14.80688388546361
AO-16
1 20439U 90005D 12347.95035403 .00000103 00000-0 54019-4 0 6273
2 20439 098.4496 286.4932 0010995 354.9728 005.1346 14.32120045195585
LO-19
1 20442U 90005G 12347.87659155 .00000082 00000-0 46165-4 0 5597
2 20442 098.4184 288.8183 0011752 345.8619 014.2232 14.32334535195763
AO-27
1 22825U 93061C 12347.94328658 .00000115 00000-0 61901-4 0 2654
2 22825 098.5960 288.1515 0009193 112.9077 247.3070 14.29517250 2020
IO-26
1 22826U 93061D 12348.95936742 .00000064 00000-0 41709-4 0 213
2 22826 098.5897 289.4814 0009780 103.7949 256.4323 14.29796406 2297
GO-32
1 25397U 98043D 12347.88849459 .00000127 00000-0 74084-4 0 9472
2 25397 098.3866 318.0183 0002174 108.7533 251.3889 14.23312162749442
NO-44
1 26931U 01043C 12348.25064952 .00000113 00000-0 76094-4 0 2101
2 26931 067.0536 018.8133 0004842 261.8763 098.1786 14.29868500584846
SO-50
1 27607U 02058C 12347.85246711 .00000570 00000-0 10751-3 0 9391
2 27607 064.5572 111.3017 0069110 211.7289 147.9655 14.72676298536276
CO-55
1 27844U 03031E 12347.97180689 .00000168 00000-0 97528-4 0 5308
2 27844 098.7020 353.7559 0010522 067.4581 292.7715 14.21128574490282
CO-57
1 27848U 03031J 12348.07790166 .00000121 00000-0 76328-4 0 4797
2 27848 098.7110 353.2787 0010416 072.3452 287.8872 14.20866180490233
AO-51
1 28375U 04025K 12347.95005987 .00000210 00000-0 75719-4 0 4380
2 28375 098.1733 305.1616 0082453 219.4903 140.0182 14.41046009444513
CP3
1 31129U 07012N 12348.44659848 .00000709 00000-0 17037-3 0 3386
2 31129 097.8868 345.7294 0099627 285.8064 073.2171 14.53381896300017
CO-65
1 32785U 08021C 12348.08887742 .00001073 00000-0 13680-3 0 4951
2 32785 097.7784 044.7246 0014142 192.9890 167.0960 14.83453053250288
PRISM
1 33493U 09002B 12348.90718766 .00001637 00000-0 19836-3 0 3468
2 33493 098.1923 134.1577 0019396 075.7152 284.6228 14.84956073210416
SOHLA-1
1 33496U 09002E 12348.93432676 .00000191 00000-0 39949-4 0 9140
2 33496 098.1181 099.6626 0006276 181.9400 178.1778 14.70139417208654
SO-67
1 35870U 09049F 12348.95873910 .00003122 00000-0 12627-3 0 6036
2 35870 097.2138 018.3518 0000381 242.0905 234.6626 15.25426373180001
TISAT-1
1 36799U 10035E 12348.83658704 .00001094 00000-0 14244-3 0 6193
2 36799 098.0499 066.4221 0013753 313.1834 046.8226 14.82645672131107
STUDSAT
1 36801U 10035G 12348.95470335 .00003635 00000-0 41898-3 0 5470
2 36801 098.0571 068.2259 0011488 294.6491 065.3526 14.86282985131206
FO-69
1 37227U 0 12324.39082420 .00000949 00000-0 14124-3 0 03419
2 37227 071.9700 329.4329 0015671 026.5333 333.6607 14.77273675059013
FO-70
1 37380U 0 12324.35497821 .00000912 00000-0 13684-3 0 03454
2 37380 071.9737 330.2673 0016487 023.0914 337.0959 14.77019282058893
ALMASAT-1
1 38078U 12006B 12348.91602606 .00027201 00000-0 72584-3 0 8229
2 38078 069.4771 268.0943 0727989 022.3794 340.7510 14.16544943 42932
XATCOBEO
1 38082U 12006F 12348.85991901 .00069434 00000-0 15600-2 0 7730
2 38082 069.4828 259.0167 0661347 017.3794 344.8853 14.34126664 43175
NOAA-10
1 16969U 86073A 12348.16669798 .00000199 00000-0 98448-4 0 1724
2 16969 098.5644 013.8843 0013111 071.7501 288.5101 14.27601969365402
NOAA-11
1 19531U 88089A 12348.25811493 -.00000167 00000-0 -63784-4 0 1634
2 19531 098.7244 069.5738 0012043 073.4202 286.8272 14.14994629249831
NOAA-12
1 21263U 91032A 12348.52239266 .00000035 00000-0 33356-4 0 6452
2 21263 098.7158 009.2310 0014599 042.4777 317.7530 14.25535927122103
MET-3/5
1 21655U 91056A 12348.81296030 .00000037 00000-0 63431-4 0 5725
2 21655 082.5560 025.2770 0012641 229.1228 130.8800 13.17043531 25533
MET-2/21
1 22782U 93055A 12348.12673964 -.00000005 00000-0 -18079-4 0 6082
2 22782 082.5485 250.5287 0023080 014.7704 345.4132 13.83696043973914
OKEAN-4
1 23317U 94066A 12348.93180832 .00000049 00000-0 29455-5 0 829
2 23317 082.5412 223.1154 0022807 115.5441 244.8136 14.84152198981467
NOAA-14
1 23455U 94089A 12348.44092602 -.00000038 00000-0 28319-5 0 1266
2 23455 098.8193 069.5987 0009519 161.3277 198.8247 14.13885022926127
NOAA-15
1 25338U 98030A 12348.30116990 .00000099 00000-0 60955-4 0 5250
2 25338 098.7061 333.6882 0010024 311.7079 048.3265 14.25156893758363
RESURS
1 25394U 98043A 12348.96115606 .00000024 00000-0 28028-4 0 2576
2 25394 098.3377 327.9075 0002351 071.1076 289.0358 14.24312868749990
FENGYUN1
1 25730U 99025A 12348.21110515 .00001233 00000-0 72372-3 0 7616
2 25730 098.8604 304.2458 0020404 211.8967 148.0972 14.09923005699833
OKEAN-0
1 25860U 99039A 12347.55383213 .00000284 00000-0 50346-4 0 8139
2 25860 097.9612 306.8214 0001865 054.0098 306.1283 14.74418614720852
NOAA-16
1 26536U 00055A 12348.28660015 -.00000097 00000-0 -27377-4 0 43
2 26536 099.0714 032.9667 0009855 301.5993 058.4237 14.12815757630328
NOAA-17
1 27453U 02032A 12348.41841533 .00000131 00000-0 74121-4 0 9472
2 27453 098.3225 006.2758 0011525 356.0515 004.0571 14.24519948544275
NOAA-18
1 28654U 05018A 12348.45220661 .00000374 00000-0 23015-3 0 4299
2 28654 099.0720 308.2639 0014507 013.9536 346.2032 14.11745263389856
NOAA-19
1 33591U 09005A 12348.42949659 -.00000100 00000-0 -31047-4 0 6147
2 33591 098.8828 286.1507 0013320 233.5481 126.4461 14.11430698198290
HUBBLE
1 20580U 90037B 12348.43443881 .00001274 00000-0 79772-4 0 1315
2 20580 028.4690 050.0412 0003684 168.0913 191.9763 15.03115584 41719
ISS
1 25544U 98067A 12348.91595993 .00008193 00000-0 14028-3 0 8277
2 25544 051.6491 308.6987 0016530 038.5215 355.3363 15.52062288805930
CO-58
1 28895U 05043F 12348.13897804 .00000441 00000-0 99166-4 0 3529
2 28895 097.8894 206.3081 0016922 310.2743 049.6970 14.60886148379784
FALCON
1 30776U 07006E 12347.98484564 .00002865 00000-0 17969-3 0 5061
2 30776 035.4357 263.5839 0000382 055.0867 304.9901 15.09089649317268
MAST
1 31126U 07012K 12348.04514747 .00000396 00000-0 98559-4 0 6314
2 31126 097.8739 348.7030 0092470 273.4800 085.5815 14.54377069300268
CAPE1
1 31130U 07012P 12348.57143171 .00000448 00000-0 11170-3 0 6430
2 31130 097.8857 345.5180 0100249 286.1878 072.8303 14.53227268299829
COMPASS
1 32787U 08021E 12347.84203189 .00001004 00000-0 12441-3 0 4894
2 32787 097.7793 045.0841 0014536 191.8864 168.1996 14.84764207250313
AAUSAT2
1 32788U 08021F 12348.17355471 .00001303 00000-0 15821-3 0 4813
2 32788 097.7787 045.8970 0014110 190.3719 169.7201 14.85157451250391
DO-64
1 32789U 08021G 12347.87717894 .00003206 00000-0 36168-3 0 5015
2 32789 097.7933 048.3908 0014049 186.6676 173.4365 14.87197893250428
CO-66
1 32791U 08021J 12348.17919660 .00000729 00000-0 93635-4 0 4780
2 32791 097.7797 044.9924 0015158 191.4183 168.6691 14.84042038250287
RS-30
1 32953U 08025A 12348.61701560 .00000010 00000-0 00000 0 0 4097
2 32953 082.4993 183.5671 0018166 278.8314 081.0707 12.43030134206850
PHARMSAT
1 35002U 09028B 12226.86484473 .07728342 73476-5 57159-3 0 789
2 35002 040.4341 050.6671 0012079 300.9773 059.0492 16.39309245183554
METEOR-M
1 35865U 09049A 12348.80312658 -.00000032 00000-0 52566-5 0 503
2 35865 098.6313 039.5324 0001605 254.9981 105.1015 14.21876305168123
RS-38
1 35869U 09049E 12348.72638418 .00000008 00000-0 23268-4 0 185
2 35869 098.6258 039.4188 0003762 254.1358 105.9397 14.22103815168130
JUGNU
1 37839U 11058B 12347.38644027 .00000620 00000-0 19019-3 0 2901
2 37839 019.9626 358.6231 0019577 029.6554 330.4958 14.12113043 60461
SRMSAT
1 37841U 11058D 12348.39148200 .00000264 00000-0 00000 0 0 2920
2 37841 019.9710 000.9457 0011597 356.2869 003.7478 14.10187765 60510
RAX-2
1 37853U 11061D 12348.24370033 .00005833 00000-0 45399-3 0 3700
2 37853 101.7066 110.1094 0241648 199.8364 159.3318 14.81728589 60896
AUBIESAT
1 37854U 11061E 12348.34689104 .00006749 00000-0 51281-3 0 3685
2 37854 101.7079 110.7717 0242873 198.4912 160.7358 14.82257671 60917
HRBE
1 37855U 11061F 12348.24761023 .00006291 00000-0 48105-3 0 3656
2 37855 101.7076 110.5082 0243322 199.0176 160.1827 14.82025332 60896
RS-39
1 38051U 11062C 12348.70727002 .00008715 00000-0 32735-3 0 9792
2 38051 051.6387 022.2863 0012550 322.5246 141.8178 15.27893316 49388
E-STAR
1 38079U 12006C 12348.83739173 .00055720 00000-0 12833-2 0 7137
2 38079 069.4858 261.0662 0681455 018.6457 343.8500 14.29377115 43114
GOLIAT
1 38085U 12006J 12348.83297619 .00052096 00000-0 11894-2 0 6888
2 38085 069.4849 262.0759 0689019 019.1821 343.3801 14.27958047 43086
HORYU-2
1 38340U 12025D 12348.09397229 .00000919 00000-0 15984-3 0 2809
2 38340 098.1938 288.4365 0013569 119.8307 240.4306 14.70464567 30766
RS-40
1 38736U 12041D 12348.76954144 .00000010 00000-0 00000 0 0 1333
2 38736 082.4783 270.7349 0019641 016.0366 344.1331 12.42648713 17214
PROITERES
1 38756U 12047B 12348.87560368 .00000322 00000-0 57106-4 0 3178
2 38756 098.2748 056.3663 0012248 342.1608 017.9160 14.74007045 14099
AENEAS
1 38760U 0 12348.33241756 .00002497 00000-0 23773-3 0 00126
2 38760 064.6718 123.4499 0216889 264.3146 093.3204 14.79799733001449
CSSWE-D
1 38761U 0 12348.33303959 .00001833 00000-0 17869-3 0 00123
2 38761 064.6718 123.4582 0218719 264.2727 093.3424 14.79643977001465
CXBN-E
1 38762U 0 12348.32829289 .00002483 00000-0 23552-3 0 00119
2 38762 064.6732 123.4438 0218182 264.1481 093.4730 14.79766012001537
OBJECT F
1 38763U 0 12348.33012834 .00001925 00000-0 18655-3 0 00120
2 38763 064.6718 123.4403 0218809 264.4441 093.1695 14.79674151001471
CINEMA-G
1 38764U 0 12348.32872278 .00002158 00000-0 20702-3 0 00110
2 38764 064.6708 123.4299 0218473 264.4809 093.1366 14.79715353001430
CP5
1 38765U 0 12348.39142906 .00002534 00000-0 24014-3 0 00114
2 38765 064.6720 123.1987 0217482 264.1008 093.5294 14.79851997001443
RAIKO
1 38852U 98067CN 12348.22156453 .00031177 00000-0 43840-3 0 747
2 38852 051.6505 310.8755 0018218 033.5885 326.6259 15.56210228 10759
FITSAT 1
1 38853U 98067CP 12348.20028937 .00036611 00000-0 49637-3 0 727
2 38853 051.6447 310.7396 0016107 046.5348 313.6985 15.57153418 10804
TechEdSat
1 38854U 98067CQ 12348.34774312 .00053967 00000-0 67174-3 0 794
2 38854 051.6400 309.4674 0016729 049.8076 310.4385 15.59236491 10839
F 1
1 38855U 98067CR 12348.22509239 .00051277 00000-0 64464-3 0 821
2 38855 051.6397 310.1415 0016851 047.1368 313.1056 15.58993523 10704
WeWish
1 38856U 98067CS 12348.90636259 .00093872 00000-0 98148-3 0 935
2 38856 051.6453 305.7005 0018284 050.5970 309.6685 15.63479395 10825
/EX
More information about the Keps
mailing list